DW0226 Weather Reports


Display with metric or nautical units.
time (UTC)temp
F
wind
direction
speed
MPH
gust
MPH
rain 1hr
in
rain 24hr
in
rain mn
in
humidity
%
barometer
mb
20260906132023 77 0.0 3.0 0.00 0.00 0.00 80 1013.0
20260906131519 77 0.0 7.0 0.00 0.00 0.00 81 1013.1
20260906131022 76 0.0 1.0 0.00 0.00 0.00 81 1013.1
20260906130036 76 0.0 1.0 0.00 0.00 0.00 83 1013.0
20260906125017 74 0.0 2.0 0.00 0.00 0.00 85 1013.0
20260906124018 73 0.0 1.0 0.00 0.00 0.00 86 1012.8
20260906123018 72 0.0 1.0 0.00 0.00 0.00 88 1012.8
20260906122017 71 0.0 0.0 0.00 0.00 0.00 89 1012.7
20260906121016 70 0.0 1.0 0.00 0.00 0.00 91 1012.7
20260906120017 69 0.0 1.0 0.00 0.00 0.00 92 1012.6
20260906115038 68 0.0 1.0 0.00 0.00 0.00 94 1012.6
20260906114018 67 0.0 1.0 0.00 0.00 0.00 94 1012.6
20260906113549 66 0.0 0.0 0.00 0.00 0.00 95 1012.4
20260906112600 65 0.0 0.0 0.00 0.00 0.00 95 1012.5
20260906111530 65 0.0 0.0 0.00 0.00 0.00 96 1012.3
20260906110517 64 0.0 0.0 0.00 0.00 0.00 95 1012.0
20260906105517 64 0.0 0.0 0.00 0.00 0.00 95 1012.0
20260906104517 64 0.0 0.0 0.00 0.00 0.00 95 1011.9
20260906103517 64 0.0 0.0 0.00 0.00 0.00 94 1011.7
20260906102518 64 0.0 1.0 0.00 0.00 0.00 94 1011.6
20260906101517 64 0.0 0.0 0.00 0.00 0.00 94 1011.5
20260906100517 64 0.0 0.0 0.00 0.00 0.00 94 1011.5
20260906095518 64 0.0 3.0 0.00 0.00 0.00 94 1011.2
20260906094517 64 0.0 0.0 0.00 0.00 0.00 94 1011.1
20260906093517 65 0.0 0.0 0.00 0.00 0.00 94 1011.1
20260906092516 65 0.0 1.0 0.00 0.00 0.00 93 1010.9
20260906091518 65 0.0 1.0 0.00 0.00 0.00 94 1010.8
20260906090517 65 0.0 1.0 0.00 0.00 0.00 93 1010.8
20260906085518 65 0.0 2.0 0.00 0.00 0.00 94 1010.6
20260906084518 65 0.0 0.0 0.00 0.00 0.00 94 1010.6
20260906083537 65 0.0 0.0 0.00 0.00 0.00 94 1010.7
20260906082518 65 0.0 0.0 0.00 0.00 0.00 94 1010.6
20260906081537 65 0.0 0.0 0.00 0.00 0.00 94 1010.5
20260906080518 65 0.0 0.0 0.00 0.00 0.00 95 1010.4
20260906075517 65 0.0 0.0 0.00 0.00 0.00 95 1010.4
20260906074516 65 0.0 0.0 0.00 0.00 0.00 95 1010.4
20260906073517 65 0.0 1.0 0.00 0.00 0.00 95 1010.4
20260906072517 65 0.0 0.0 0.00 0.00 0.00 95 1010.4
20260906071641 66 0.0 0.0 0.00 0.00 0.00 95 1010.3
20260906070516 66 0.0 0.0 0.00 0.00 0.00 95 1010.4
20260906065516 66 0.0 0.0 0.00 0.00 0.00 95 1010.3
20260906064517 66 0.0 0.0 0.00 0.00 0.00 95 1010.3
20260906063517 66 0.0 0.0 0.00 0.00 0.00 96 1010.4
20260906062516 66 0.0 0.0 0.00 0.00 0.00 95 1010.3
20260906061516 66 0.0 0.0 0.00 0.00 0.00 95 1010.5
20260906060517 67 0.0 0.0 0.00 0.00 0.00 95 1010.4
20260906055517 67 0.0 0.0 0.00 0.00 0.00 95 1010.4
20260906054516 67 0.0 1.0 0.00 0.00 0.00 96 1010.5
20260906053537 67 0.0 0.0 0.00 0.00 0.00 96 1010.6
20260906052516 67 0.0 0.0 0.00 0.00 0.00 95 1010.6
20260906051536 67 0.0 0.0 0.00 0.00 0.00 95 1010.6
20260906050518 68 0.0 0.0 0.00 0.00 0.00 95 1010.7
20260906045517 68 0.0 0.0 0.00 0.00 0.00 95 1010.7
20260906044516 68 0.0 0.0 0.00 0.00 0.00 95 1010.9
20260906043559 68 0.0 0.0 0.00 0.00 0.00 95 1010.9
20260906042518 69 0.0 0.0 0.00 0.00 0.00 95 1010.8
20260906041517 69 0.0 0.0 0.00 0.00 0.00 95 1010.8
20260906040517 69 0.0 0.0 0.00 0.00 0.00 95 1010.9
20260906035516 69 0.0 0.0 0.00 0.00 0.00 95 1011.0
20260906034517 69 0.0 1.0 0.00 0.00 0.00 95 1011.0
20260906033520 69 0.0 0.0 0.00 0.00 0.00 95 1011.1
20260906032517 70 0.0 0.0 0.00 0.00 0.00 95 1011.0
20260906031515 70 0.0 0.0 0.00 0.00 0.00 95 1011.0
20260906030517 71 0.0 0.0 0.00 0.00 0.00 94 1010.8
20260906025517 71 0.0 0.0 0.00 0.00 0.00 95 1010.8
20260906024517 71 0.0 0.0 0.00 0.00 0.00 94 1010.9
20260906023518 72 0.0 0.0 0.00 0.00 0.00 95 1011.0
20260906022517 72 0.0 0.0 0.00 0.00 0.00 94 1011.0
20260906021517 72 0.0 0.0 0.00 0.00 0.00 94 1010.8
20260906020518 72 0.0 0.0 0.00 0.00 0.00 95 1010.8
20260906015517 73 0.0 0.0 0.00 0.00 0.00 95 1010.9
20260906014517 73 0.0 0.0 0.00 0.00 0.00 95 1010.8
20260906013518 73 0.0 0.0 0.00 0.00 0.00 94 1010.6
20260906012515 73 0.0 0.0 0.00 0.00 0.00 94 1010.4
20260906011517 73 0.0 0.0 0.00 0.00 0.00 94 1010.4
20260906010515 73 0.0 0.0 0.00 0.00 0.00 94 1010.3
20260906005517 73 0.0 0.0 0.00 0.00 0.00 93 1010.2
20260906004515 74 0.0 0.0 0.00 0.00 0.00 93 1009.9
20260906003522 74 0.0 0.0 0.00 0.00 0.00 92 1009.7
20260906002519 75 0.0 0.0 0.00 0.00 0.00 92 1009.5
20260906001519 75 0.0 0.0 0.00 0.00 0.00 92 1009.7
20260906000518 76 0.0 1.0 0.00 0.00 0.00 93 1009.7
20260905235517 76 0.0 0.0 0.00 0.00 0.00 92 1009.7
20260905234519 76 0.0 0.0 0.00 0.00 0.00 92 1009.7
20260905233517 76 0.0 0.0 0.00 0.00 0.00 92 1009.6
20260905232517 76 0.0 1.0 0.00 0.00 0.00 91 1009.5
20260905231517 76 0.0 0.0 0.00 0.00 0.00 92 1009.5
20260905230518 77 0.0 1.0 0.00 0.00 0.00 91 1009.4
20260905225517 77 0.0 2.0 0.00 0.00 0.00 90 1009.5
20260905224519 77 0.0 0.0 0.00 0.00 0.00 90 1009.4
20260905223555 77 0.0 0.0 0.00 0.00 0.00 90 1009.4
20260905222538 77 0.0 0.0 0.00 0.00 0.00 90 1009.2
20260905221536 77 0.0 0.0 0.00 0.00 0.00 89 1009.1
20260905220517 77 0.0 0.0 0.00 0.00 0.00 89 1009.0
20260905215515 78 0.0 0.0 0.00 0.00 0.00 89 1009.1
20260905214517 78 0.0 0.0 0.00 0.00 0.00 89 1009.2
20260905213545 78 0.0 0.0 0.00 0.00 0.00 89 1009.1
20260905212517 77 0.0 0.0 0.00 0.00 0.00 88 1009.0
20260905211517 77 0.0 1.0 0.00 0.00 0.00 88 1008.8
20260905210518 77 270 1.0 3.0 0.00 0.00 0.00 88 1008.9
20260905205517 77 225 1.0 3.0 0.00 0.00 0.00 89 1008.9
20260905204517 77 270 2.0 4.0 0.00 0.00 0.00 88 1008.8
20260905203518 77 270 2.0 5.0 0.00 0.00 0.00 89 1008.7
20260905202515 77 225 4.0 7.0 0.00 0.00 0.00 88 1008.6
20260905201518 79 225 3.0 9.0 0.00 0.00 0.00 85 1008.7
20260905200517 82 113 1.0 5.0 0.00 0.00 0.00 80 1008.7
20260905195600 82 68 1.0 3.0 0.00 0.00 0.00 78 1008.8
20260905194519 82 270 1.0 2.0 0.00 0.00 0.00 79 1008.8
20260905193517 81 0.0 2.0 0.00 0.00 0.00 80 1008.7
20260905192517 81 135 1.0 2.0 0.00 0.00 0.00 80 1008.9
20260905191517 81 180 1.0 4.0 0.00 0.00 0.00 79 1008.9
20260905190518 81 90 1.0 3.0 0.00 0.00 0.00 80 1009.0
20260905185518 81 0.0 3.0 0.00 0.00 0.00 81 1009.0
20260905184518 80 0.0 1.0 0.00 0.00 0.00 82 1009.0
20260905183518 79 68 1.0 4.0 0.00 0.00 0.00 84 1008.7
20260905182535 79 90 2.0 5.0 0.00 0.00 0.00 84 1008.3
20260905181518 78 90 2.0 5.0 0.00 0.00 0.00 84 1008.8
20260905180539 78 68 1.0 4.0 0.00 0.00 0.00 84 1009.5
20260905175517 79 0.0 3.0 0.00 0.00 0.00 85 1009.5
20260905174521 79 0.0 3.0 0.00 0.00 0.00 85 1010.0
20260905173521 79 0.0 2.0 0.00 0.00 0.00 84 1010.8
20260905172517 79 0.0 0.0 0.00 0.00 0.00 83 1010.9
20260905171517 80 0.0 2.0 0.00 0.00 0.00 83 1010.8
20260905170517 80 270 2.0 4.0 0.00 0.00 0.00 82 1010.9
20260905165517 81 293 2.0 4.0 0.00 0.00 0.00 81 1010.9
20260905164537 81 315 1.0 4.0 0.00 0.00 0.00 79 1010.7
20260905163518 82 0.0 1.0 0.00 0.00 0.00 80 1010.7
20260905162519 82 293 3.0 6.0 0.00 0.00 0.00 76 1010.7
20260905161518 82 270 2.0 7.0 0.00 0.00 0.00 79 1010.5
20260905160518 82 0.0 3.0 0.00 0.00 0.00 82 1010.5
20260905155558 82 293 2.0 5.0 0.00 0.00 0.00 80 1010.6
20260905154538 82 293 1.0 4.0 0.00 0.00 0.00 81 1010.5
20260905153518 81 270 2.0 6.0 0.00 0.00 0.00 81 1010.6
20260905152517 82 315 2.0 6.0 0.00 0.00 0.00 80 1010.5
20260905151518 82 315 1.0 5.0 0.00 0.00 0.00 82 1010.6
20260905150519 82 0.0 1.0 0.00 0.00 0.00 81 1010.8
20260905145518 81 293 1.0 5.0 0.00 0.00 0.00 81 1010.7
20260905144538 82 0.0 1.0 0.00 0.00 0.00 82 1010.8
20260905143517 82 293 2.0 6.0 0.00 0.00 0.00 81 1010.7
20260905142529 82 315 1.0 6.0 0.00 0.00 0.00 81 1010.5
20260905141538 81 293 2.0 5.0 0.00 0.00 0.00 81 1010.4
20260905140517 81 293 2.0 5.0 0.00 0.00 0.00 83 1010.3
20260905135517 81 0.0 4.0 0.00 0.00 0.00 84 1010.1
20260905134518 80 0.0 2.0 0.00 0.00 0.00 84 1010.2
20260905133517 80 0.0 1.0 0.00 0.00 0.00 86 1010.2
20260905132517 79 0.0 3.0 0.00 0.00 0.00 85 1010.3